Location: Favalello
(42.2939°N, 9.2706°E)
Time: 08:44:54
(UTC+00:00)

Cosmos 1992 Rocket - Pass Details

Date: 06 December 2019
Orbit: 758 x 766 km, 74.0° (Epoch: 18 January)

Event Time Altitude Azimuth Distance (km) Brightness Sun altitude
Rises 17:01:53 0° 345° (NNW) 3,232 7.2 -12.8°
Reaches altitude 10° 17:04:22 10° 352° (N) 2,304 6.4 -13.2°
Maximum altitude 17:09:22 44° 65° (ENE) 1,046 4.2 -14.1°
Drops below altitude 10° 17:14:20 10° 137° (SE) 2,294 6.2 -15.0°
Sets 17:16:48 0° 144° (SE) 3,217 7.0 -15.4°
